Weather in Swiebodzin

Poland     52°14′46″N   15°31′36″E
temp.,
°C
wind,
m/s
gust,
m/s
humid.,
%
clouds,
%
prec.,
mm/h
press.,
hPa
HPBL,
m
15 may, sat
sat1523:00+8wsw4108849 0.0 1008345
02:00+7wsw3109432 0.0 1008245
05:00+8wsw248610 0.0 1008118
08:00+12sw34795 0.0 1009348
11:00+16sw356414 0.9 10071165
14:00+17sw5660100 2.9 10071433
17:00+17sw4563100 0.8 10061210
20:00+13s4884100 2.8 1005212
16 may, sun
sun1623:00+10se359399 1.8 1005124
02:00+9sse359420 2.4 1005100
05:00+9sw3797100 0.0 1005242
08:00+11sw4787100 0.0 1005453
11:00+14sw566762 0.1 10061210
14:00+15sw676186 0.3 10051443
17:00+16sw56532 0.0 10041378
20:00+13sw35745 0.0 1004123
17 may, mon
mon1723:00+10s338642 0.1 100447
02:00+9ssw229055 0.1 100433
05:00+8s349394 0.0 100381
08:00+11wsw358584 0.0 1004419
11:00+14wsw4564100 0.3 10041212
14:00+15ssw5670100 1.3 1005894
17:00+15wsw5773100 1.6 1004947
20:00+12wsw4885100 2.3 1005380
18 may, tue
tue1823:00+10wsw51292100 0.0 1006495
02:00+8wsw5129589 0.0 1006425
05:00+8wsw4109654 0.0 1006398
08:00+10w5992100 0.1 1007590
11:00+10w5885100 0.1 1008795
14:00+17wnw684720 0.1 10082142
17:00+15w585749 0.1 10081315
20:00+13wnw486716 0.2 1010331
19 may, wed
wed1923:00+9w49895 0.0 1012236
02:00+7w389758 0.0 1013193
05:00+7w3996100 0.0 1014268
08:00+11wnw597555 0.1 1015814
11:00+14w68526 0.3 10151588
14:00+15w774893 0.3 10152128
17:00+13wsw686142 0.1 10151012
20:00+12w59744 0.4 1015456